Location: Roland
(31.1349°N, 85.4372°W)
Time: 22:35:27
(UTC+00:00)

Tiros 1 - Pass Details

Date: 18 April 2021
Orbit: 630 x 664 km, 48.4° (Epoch: 13 May)

Event Time Altitude Azimuth Distance (km) Brightness Sun altitude
Rises 13:40:48 0° 206° (SSW) 2,937 10.4 31.2°
Reaches altitude 10° 13:43:18 10° 196° (SSW) 2,024 9.7 31.7°
Maximum altitude 13:47:29 33° 132° (SE) 1,060 9.5 32.6°
Drops below altitude 10° 13:51:39 10° 68° (ENE) 2,014 10.7 33.5°
Sets 13:54:08 0° 59° (ENE) 2,921 11.2 34.0°
